sat.trackr.live / text

‹ back to catalog

GEESAT-5 02

NORAD 65551 · 2025-201B

PAYLOAD ACTIVE UNKNOWN

§ Identity

Operator
Country
PRC
Launch date
2025-09-08
Launch site
YSLA
Launch vehicle
Mass (kg)
RCS (m²)

External: N2YO · Heavens-Above · Gunter

§ Orbital elements

Epoch: 2026-09-19T04:11:24.750528Z

Period
97.01 min
Inclination
49.9877°
Eccentricity
0.0008200
Mean motion
14.84416147 rev/d
Perigee alt
609.7 km
Apogee alt
621.2 km
Semi-major
6,993.6 km
B*
1.3366e-4
RAAN
323.3121°
Arg perigee
324.3790°
Mean anomaly
35.6600°
Rev number
5,575

§ Raw data

GEESAT-5 021 65551U 25201B   26262.17459202  .00000907  00000+0  13366-3 0  99972 65551  49.9877 323.3121 0008200 324.3790  35.6600 14.84416147 55753

JSON: /api/v1/satellites/65551 · /tle

For live sub-satellite position, see the globe view (requires WebGL).

§ Visibility from observer

Set your observer location to see the next 7 days of passes ≥ 10°. The values pass through the URL so the page stays shareable.

No JS? Fill the form by hand. The geolocation button needs JavaScript.